Milwaukee, WI

9:37 PM CDT on May 27, 2017 (GMT -0500)
Gen Mitchell International

Weather History for KMKE - January, 2013

Change the Weather History Date:

Thursday, January 3, 2013

  Actual Average Record
Temperature  
Mean Temperature 22 °F 23 °F  
Max Temperature 27 °F 29 °F 59 °F (1874)
Min Temperature 16 °F 16 °F -20 °F (1879)
Degree Days  
Heating Degree Days 43 42  
Month to date heating degree days 143 126  
Since 1 July heating degree days 2472 2686  
Cooling Degree Days 0 0  
Month to date cooling degree days 0 0  
Year to date cooling degree days 0 0  
Moisture  
Dew Point 17 °F    
Average Humidity 75    
Maximum Humidity 81    
Minimum Humidity 68    
Precipitation  
Precipitation T in 0.06 in 1.19 in (1897)
Month to date precipitation T 0.18  
Year to date precipitation T 0.18  
Snow  
Snow T in 0.50 in 7.90 in (1971)
Month to date snowfall T 1.4  
Since 1 July snowfall 6.9 14.7  
Snow Depth 2.00 in    
Sea Level Pressure  
Sea Level Pressure 30.15 in    
Wind  
Wind Speed 11 mph (West)    
Max Wind Speed 20 mph    
Max Gust Speed 30 mph    
Visibility 8 miles    
Events Snow    
T = Trace of Precipitation, MM = Missing Value Source: NWS Daily Summary

Daily Weather History Graph

Daily Weather History Graph

Search for Another Location

Airport or City:

Trip Planner

Search our weather history database for the weather conditions in past years. The results will help you decide how hot, cold, wet, or windy it might be!

Date:

Astronomy

Jan. 03, 2013 Rise Set
Actual Time 7:22 AM CST 4:29 PM CST
Civil Twilight 6:50 AM CST 5:02 PM CST
Nautical Twilight 6:15 AM CST 5:37 PM CST
Astronomical Twilight 5:40 AM CST 6:11 PM CST
Moon 11:15 PM CST (1/3) 10:24 AM CST (1/3)
Length of Visible Light 10h 11m
Length of Day
9h 07m
Waning Gibbous, 65% of the Moon is Illuminated
Jan 3
Waning Gibbous
Jan 4
Last Quarter
Jan 11
New
Jan 18
First Quarter
Jan 26
Full

Hourly Weather History & Observations

Time (CST) Temp. Windchill Dew Point Humidity Pressure Visibility Wind Dir Wind Speed Gust Speed Precip Events Conditions
12:52 AM 24.8 °F 15.3 °F 17.6 °F 74% 30.04 in 9.0 mi SW 9.2 mph - N/A Snow Light Snow
1:52 AM 25.0 °F 15.5 °F 19.0 °F 78% 30.07 in 8.0 mi WSW 9.2 mph - 0.00 in Snow Light Snow
2:37 AM 24.8 °F 17.9 °F 19.4 °F 80% 30.04 in 8.0 mi West 5.8 mph - 0.00 in Snow Light Snow
2:52 AM 25.0 °F 16.3 °F 19.0 °F 78% 30.08 in 8.0 mi West 8.1 mph - 0.00 in Snow Light Snow
3:52 AM 24.1 °F 15.2 °F 18.0 °F 77% 30.07 in 8.0 mi West 8.1 mph - 0.00 in   Mostly Cloudy
4:37 AM 24.8 °F 16.1 °F 17.6 °F 74% 30.04 in 7.0 mi West 8.1 mph - N/A   Overcast
4:52 AM 24.1 °F 14.4 °F 17.1 °F 75% 30.08 in 7.0 mi West 9.2 mph - N/A   Overcast
5:52 AM 23.0 °F 12.4 °F 17.1 °F 78% 30.09 in 8.0 mi West 10.4 mph - N/A   Overcast
6:52 AM 24.1 °F 15.2 °F 18.0 °F 77% 30.11 in 8.0 mi West 8.1 mph - N/A   Overcast
7:52 AM 24.1 °F 13.7 °F 19.0 °F 81% 30.13 in 6.0 mi West 10.4 mph 18.4 mph 0.00 in   Haze
8:34 AM 24.8 °F 14.6 °F 19.4 °F 80% 30.10 in 6.0 mi West 10.4 mph 20.7 mph 0.00 in Snow Light Snow
8:52 AM 24.1 °F 12.5 °F 18.0 °F 77% 30.14 in 4.0 mi West 12.7 mph - 0.00 in Snow Light Snow
9:52 AM 24.1 °F 12.0 °F 18.0 °F 77% 30.16 in 5.0 mi West 13.8 mph 20.7 mph 0.00 in   Haze
10:52 AM 25.0 °F 12.2 °F 17.1 °F 72% 30.16 in 6.0 mi West 16.1 mph 23.0 mph N/A   Haze
11:52 AM 26.1 °F 15.6 °F 18.0 °F 71% 30.16 in 7.0 mi WNW 11.5 mph - N/A   Overcast
12:52 PM 26.1 °F 13.6 °F 17.1 °F 69% 30.15 in 8.0 mi WNW 16.1 mph - N/A   Overcast
1:52 PM 26.1 °F 14.0 °F 18.0 °F 71% 30.16 in 7.0 mi WNW 15.0 mph - N/A   Overcast
2:52 PM 27.0 °F 15.6 °F 18.0 °F 69% 30.17 in 7.0 mi WNW 13.8 mph - N/A   Overcast
3:52 PM 26.1 °F 15.6 °F 18.0 °F 71% 30.20 in 7.0 mi West 11.5 mph - N/A   Overcast
4:52 PM 26.1 °F 15.0 °F 18.0 °F 71% 30.22 in 7.0 mi WNW 12.7 mph 19.6 mph N/A   Mostly Cloudy
5:05 PM 24.8 °F 11.9 °F 17.6 °F 74% 30.19 in 7.0 mi West 16.1 mph 20.7 mph N/A   Mostly Cloudy
5:52 PM 26.1 °F 15.6 °F 18.0 °F 71% 30.23 in 8.0 mi West 11.5 mph 20.7 mph N/A   Overcast
6:52 PM 25.0 °F 14.8 °F 18.0 °F 75% 30.23 in 8.0 mi West 10.4 mph - N/A   Mostly Cloudy
7:10 PM 24.8 °F 14.0 °F 17.6 °F 74% 30.19 in 9.0 mi West 11.5 mph - N/A   Partly Cloudy
7:52 PM 23.0 °F 13.9 °F 17.1 °F 78% 30.24 in 9.0 mi West 8.1 mph 17.3 mph N/A   Scattered Clouds
8:52 PM 19.9 °F 6.7 °F 14.0 °F 78% 30.22 in 10.0 mi WSW 13.8 mph 18.4 mph N/A   Partly Cloudy
9:52 PM 18.0 °F 5.4 °F 12.9 °F 81% 30.22 in 9.0 mi WSW 11.5 mph - N/A   Partly Cloudy
10:52 PM 17.1 °F 6.6 °F 12.0 °F 81% 30.22 in 10.0 mi WSW 8.1 mph - N/A   Partly Cloudy
11:52 PM 17.1 °F 4.3 °F 10.9 °F 77% 30.20 in 10.0 mi WSW 11.5 mph - N/A   Partly Cloudy